Victoria, TX

7:59 AM CDT on October 16, 2019 (GMT -0500)
Victoria Regional

Weather History for KVCT - August, 2019

Change the Weather History Date:

Thursday, August 1, 2019

  Actual Average Record
Temperature  
Mean Temperature 87 °F 84 °F  
Max Temperature 100 °F 95 °F 103 °F (1998)
Min Temperature 73 °F 74 °F 68 °F (1936)
Degree Days  
Heating Degree Days 0 0  
Month to date heating degree days 0 0  
Since 1 June heating degree days 0 0  
Since 1 July heating degree days 0 0  
Cooling Degree Days 22 20  
Month to date cooling degree days 22 20  
Year to date cooling degree days 1975 1773  
Since 1 June cooling degree days 1207 1114  
Growing Degree Days 36 (Base 50)    
Moisture  
Dew Point 72 °F    
Average Humidity 65    
Maximum Humidity 94    
Minimum Humidity 35    
Precipitation  
Precipitation 0.00 in 0.08 in 1.87 in (1997)
Month to date precipitation 0.00 0.08  
Year to date precipitation 14.64 24.10  
Snow  
Snow 0.00 in 0.00 in 0.00 in (2002)
Month to date snowfall 0.0 0.0  
Since 1 June snowfall 0.0 0.0  
Since 1 July snowfall 0.0 0.0  
Snow Depth 0.00 in    
Sea Level Pressure  
Sea Level Pressure 30.00 in    
Wind  
Wind Speed 6 mph (ESE)    
Max Wind Speed 24 mph    
Max Gust Speed 29 mph    
Visibility 8 miles    
Events      
T = Trace of Precipitation, MM = Missing Value Source: NWS Daily Summary

Daily Weather History Graph

Daily Weather History Graph

Search for Another Location

Airport or City:

Astronomy

Aug. 01, 2019 Rise Set
Actual Time 6:48 AM CDT 8:19 PM CDT
Civil Twilight 6:23 AM CDT 8:44 PM CDT
Nautical Twilight 5:52 AM CDT 9:15 PM CDT
Astronomical Twilight 5:20 AM CDT 9:46 PM CDT
Moon 7:16 AM CDT (8/1) 9:08 PM CDT (8/1)
Length of Visible Light 14h 21m
Length of Day
13h 30m
New Moon, 1% of the Moon is Illuminated
Aug 1
New Moon
Aug 7
First Quarter
Aug 15
Full
Aug 23
Last Quarter
Aug 30
New

Hourly Weather History & Observations

Time (CDT) Temp. Heat Index Dew Point Humidity Pressure Visibility Wind Dir Wind Speed Gust Speed Precip Events Conditions
12:51 AM 78.1 °F - 73.9 °F 87% 29.99 in 10.0 mi SE 6.9 mph - N/A   Clear
1:51 AM 77.0 °F - 73.9 °F 90% 29.98 in 10.0 mi SSE 3.5 mph - N/A   Clear
2:51 AM 75.9 °F - 73.9 °F 94% 29.98 in 10.0 mi South 4.6 mph - N/A   Clear
3:51 AM 75.0 °F - 73.0 °F 94% 29.99 in 10.0 mi Calm Calm - N/A   Clear
4:51 AM 73.9 °F - 72.0 °F 93% 29.99 in 2.0 mi Calm Calm - N/A   Clear
4:55 AM 73.9 °F - 71.1 °F 91% 30.00 in 1.2 mi Calm Calm - N/A   Clear
5:40 AM 73.9 °F - 72.0 °F 93% 30.01 in 2.0 mi Calm Calm - N/A   Clear
5:51 AM 73.0 °F - 71.1 °F 93% 30.00 in 3.0 mi Calm Calm - N/A   Partly Cloudy
6:12 AM 73.9 °F - 71.1 °F 91% 30.01 in 2.5 mi NE 3.5 mph - N/A   Partly Cloudy
6:19 AM 73.0 °F - 71.1 °F 93% 30.01 in 5.0 mi NE 3.5 mph - N/A   Partly Cloudy
6:51 AM 73.9 °F - 72.0 °F 93% 30.01 in 6.0 mi North 3.5 mph - N/A   Partly Cloudy
7:51 AM 77.0 °F - 73.9 °F 90% 30.03 in 8.0 mi NE 3.5 mph - N/A   Clear
8:51 AM 82.9 °F 90.8 °F 75.9 °F 79% 30.04 in 10.0 mi Calm Calm - N/A   Clear
9:31 AM 84.0 °F 91.9 °F 75.0 °F 74% 30.04 in 10.0 mi SSW 3.5 mph - N/A   Mostly Cloudy
9:51 AM 86.0 °F 93.8 °F 73.9 °F 67% 30.04 in 10.0 mi Calm Calm - N/A   Mostly Cloudy
10:20 AM 84.9 °F 91.4 °F 73.0 °F 67% 30.04 in 10.0 mi West 3.5 mph - N/A   Mostly Cloudy
10:51 AM 90.0 °F 97.9 °F 73.0 °F 57% 30.04 in 10.0 mi NNW 3.5 mph - N/A   Scattered Clouds
11:51 AM 93.0 °F 100.1 °F 71.1 °F 49% 30.04 in 10.0 mi NNE 3.5 mph - N/A   Scattered Clouds
12:51 PM 93.0 °F 97.9 °F 69.1 °F 45% 30.03 in 10.0 mi Calm Calm - N/A   Mostly Cloudy
1:51 PM 93.0 °F 97.9 °F 69.1 °F 45% 30.02 in 10.0 mi NE 4.6 mph - N/A   Scattered Clouds
2:51 PM 99.0 °F 103.5 °F 66.9 °F 35% 29.98 in 10.0 mi East 8.1 mph - N/A   Scattered Clouds
3:51 PM 97.0 °F 101.0 °F 66.9 °F 37% 29.96 in 10.0 mi ESE 9.2 mph - N/A   Mostly Cloudy
4:51 PM 93.0 °F 101.9 °F 73.0 °F 52% 29.97 in 10.0 mi SSE 18.4 mph - N/A   Mostly Cloudy
5:51 PM 91.9 °F 99.5 °F 72.0 °F 52% 29.96 in 10.0 mi SSE 12.7 mph - N/A   Partly Cloudy
6:51 PM 91.9 °F 98.4 °F 71.1 °F 50% 29.94 in 10.0 mi SE 12.7 mph - N/A   Clear
7:51 PM 88.0 °F 93.8 °F 71.1 °F 57% 29.95 in 10.0 mi ESE 12.7 mph - N/A   Clear
8:51 PM 84.9 °F 90.7 °F 72.0 °F 65% 29.96 in 10.0 mi SSE 12.7 mph - N/A   Clear
9:51 PM 82.9 °F 88.8 °F 73.0 °F 72% 29.97 in 10.0 mi SSE 9.2 mph - N/A   Clear
10:51 PM 81.0 °F 85.8 °F 73.0 °F 77% 29.98 in 10.0 mi SSE 6.9 mph - N/A   Clear
11:51 PM 80.1 °F 84.2 °F 73.0 °F 79% 29.99 in 10.0 mi South 4.6 mph - N/A   Clear